Regional Weather Roundup
Issued by NWS Wakefield, VA

Home | Current Version | Previous Version | Text Only | Print | Product List | Glossary Off
Versions: 1 2 3 4 5 6 7 8 9 10 11 12 13 14 15 16 17 18 19 20 21 22 23 24 25 26 27

000
ASUS41 KAKQ 281015
RWRAKQ

REGIONAL WEATHER ROUNDUP
NATIONAL WEATHER SERVICE WAKEFIELD VA
600 AM EDT WED SEP 28 2016

Note: "fair" indicates few or no clouds below 12,000 feet with no
significant weather and/or obstructions to visibility. * = Denotes
station may not report precipitation (e.g., rain,snow,etc.),
thunder or fog.

VAZ042-051-052>054-056-281100-
NORTHERN VIRGINIA

CITY           SKY/WX    TMP DP  RH WIND       PRES   REMARKS
WASH NATIONAL  CLOUDY    66  65  96 NE9       29.96S
DULLES         CLOUDY    63  62  97 E10       29.96R FOG
FORT BELVOIR   LGT RAIN  64  63  94 VRB1      29.94S
QUANTICO       CLOUDY    68  65  90 NE13      29.94S THUNDER
FREDERICKSBRG* LGT RAIN  67  67 100 N3        29.91S
STAFFORD*      CLOUDY    65  64  97 W12       29.98R THUNDER
WARRENTON      LGT RAIN  65  61  87 NE3       29.94R
CULPEPER*      CLOUDY    65  65 100 N3        29.95S FOG
MANASSAS*      CLOUDY    66  64  94 NE5       29.95R
LEESBURG*      CLOUDY    63  63 100 NE3       29.98R
WINCHESTER     RAIN      61  57  88 N5        29.96S
FRONT ROYAL*   CLOUDY    59  57  94 CALM      29.95R
LURAY*         CLOUDY   N/A N/A N/A NE5       29.96R HAZE
$$

VAZ048-049-060>072-079>083-281100-
CENTRAL AND SOUTH CENTRAL VIRGINIA

CITY           SKY/WX    TMP DP  RH WIND       PRES   REMARKS
RICHMOND       RAIN      68  67  96 SE8       29.91S FOG
CHESTERFIELD*  CLOUDY    70  55  60 SE6       29.93S
PETERSBURG*    CLOUDY   N/A N/A N/A CALM      29.93S FOG
HANOVER        LGT RAIN  68  67  96 CALM      29.93S FOG
TAPPAHANNOCK*  DRIZZLE   70  70 100 CALM      29.94R
QUINTON*       CLOUDY    68  68 100 S6        29.91S
CHARLOTTSVILLE CLOUDY    67  64  90 NE7       29.93S FOG
GORDONSVILLE*  CLOUDY    64  64 100 NE3       29.92S
ORANGE*        LGT RAIN  64  64 100 CALM      29.95S
LOUISA*        CLOUDY    72  70  94 CALM      29.92S FOG
BUMPASS*       CLOUDY    67  67 100 CALM      29.92R
FARMVILLE*     CLOUDY    71  70  96 CALM      29.90F FOG
CREWE*         CLOUDY    68  68 100 NW3       29.92S VSB 1/2
FORT PICKETT*  CLOUDY    68  64  88 S8        29.91F VSB 1
CHASE CITY*    CLOUDY    69  67  94 CALM      29.92R VSB 3/4
CLARKSVILLE*   CLOUDY    68  68 100 CALM      29.93R
SOUTH HILL*    CLOUDY    68  68 100 CALM      29.98S
LAWRENCEVILLE* CLOUDY    69  68  97 SE3       29.92S
EMPORIA*       CLOUDY    68  68 100 CALM      29.94S FOG
$$

VAZ088>098-281100-
SOUTHEAST VIRGINIA

CITY           SKY/WX    TMP DP  RH WIND       PRES   REMARKS
NORFOLK        CLEAR     68  67  96 CALM      29.93R
VIRGINIA BEACH CLEAR     64  63  96 CALM      29.92F FOG
NORFOLK NAVAL  PTCLDY    68  66  93 CALM      29.94S
WEST POINT*    MOCLDY    66  66  99 E3        29.93S
SALUDA*        PTSUNNY   66  66 100 CALM      29.93S
NEWPORT NEWS   FOG       67  66  97 CALM      29.92F VSB 3/4
LANGLEY AFB    PTCLDY    66  66 100 SE1       29.92S
FORT EUSTIS    CLOUDY    68  67  95 E2        29.90S
WILLIAMSBURG*  MOCLDY    70  70 100 SE3       29.93F
HR EXEC AP*    FAIR      63  61  94 CALM      29.95R
FRANKLIN*      MOCLDY    65  65  97 CALM      29.93S
US460-WAKEFLD  MOCLDY    68  66  93 CALM      29.93R
$$

VAZ020-022-025-037-045-281100-
WEST CENTRAL AND SOUTHWEST VIRGINIA

CITY           SKY/WX    TMP DP  RH WIND       PRES   REMARKS
STAUNTON*      CLOUDY    59  55  86 CALM      29.97S
WAYNESBORO*    CLOUDY    60  55  83 NW3       29.96R
HOT SPRINGS VA CLEAR     57  31  36 CALM      30.00S
LYNCHBURG      CLOUDY    66  66 100 CALM      29.94R
DANVILLE       MOCLDY    66  65  96 CALM      29.92S
SOUTH BOSTON*  CLOUDY    67  65  95 SW3       29.92S
MARTINSVILLE   CLOUDY    65  65  97 CALM      29.95S
ROANOKE        CLOUDY    62  59  90 CALM      29.96R
BLACKSBURG     CLEAR     50  50  99 CALM      30.00S
DUBLIN*        FOG       52  52 100 CALM      29.99S VSB 1/2
MARION*        FOG       51  50  96 CALM      30.02R VSB 1/2
HILLSVILLE*    MOCLDY    58  58 100 CALM      29.98S FOG
RICHLANDS*     FAIR      50  46  87 N3        29.98S
WISE*          PTCLDY    52  36  54 CALM      29.99S
ABINGDON*      CLEAR     55  55  98 CALM      29.98R
$$

MDZ021>025-VAZ099-100-281100-
SOUTHERN MARYLAND AND THE DELMARVA PENINSULA

CITY           SKY/WX    TMP DP  RH WIND       PRES   REMARKS
PATUXENT RIVER CLOUDY    68  65  90 E9        29.94R
BAY BRIDGE APT CLOUDY    63  63 100 MISG      29.97R FOG
LEONARDTOWN    CLOUDY    66  64  94 E5        29.96R
DOVER          CLEAR     61  61 100 NE9       29.97S
GEORGETOWN     CLOUDY    66  64  93 NE7       29.97S
EASTON         CLEAR     63  61  94 E5        30.00  FOG
CAMBRIDGE      MOCLDY    63  63 100 CALM      29.95R
SALISBURY      CLOUDY    66  66 100 NE9       29.96R
OCEAN CITY     CLOUDY    71  66  84 NE7       29.96R
WALLOPS ISLAND MOCLDY    69  69 100 N7        29.95R
ACCOMACK*      PTCLDY    67  65  93 CALM      29.94R
$$

NCZ012>017-030>032-281100-
NORTH CENTRAL AND EASTERN NORTH CAROLINA

CITY           SKY/WX    TMP DP  RH WIND       PRES   REMARKS
ROANOKE RAPIDS PTSUNNY   68  68 100 CALM      29.92S FOG
RALEIGH        CLOUDY    70  69  97 VRB3      29.92S
ELIZABETH CITY FOG       65  65 100 CALM      29.93S VSB 1
AHOSKIE*       MOCLDY    67  66  97 CALM      29.93S
EDENTON*       CLEAR     67  67 100 CALM      29.93S
CURRITUCK*     NOT AVBL
KILL DEVIL HLS CLEAR     71  71 100 CALM      29.91S
MANTEO         NOT AVBL
CAPE HATTERAS  CLEAR     74  71  91 NW5       29.91S
TARBORO*       FAIR      69  69  99 CALM      29.93S FOG
GOLDSBORO      MOCLDY    70  70 100 SE2       29.91R
WASHINGTON     PTCLDY    66  65  98 CALM      29.94R
GREENVILLE     MOCLDY    70  70 100 CALM      29.95S
NEW BERN       CLEAR     68  67  96 CALM      29.94S
WILMINGTON     CLEAR     67  66  97 NE5       29.92S
$$

VAZ048-281100-
ELSEWHERE

CITY           SKY/WX    TMP DP  RH WIND       PRES   REMARKS
HARRISBURG PA  PTCLDY    56  55  97 CALM      30.00S
BALTIMORE      CLOUDY    63  62  97 NE7       29.97R FOG
ANNAPOLIS      CLOUDY    67  65  93 NE7       29.97R
ANDREWS AFB    CLOUDY    64  63  94 NE8       29.95R
PHILADELPHIA   MOCLDY    59  56  89 N3        30.01S
HENDERSON NC   CLOUDY    66  66  97 CALM      29.92S FOG
GREENSBORO     MOCLDY    67  67 100 CALM      29.91F
ROCKY MOUNT    MOCLDY    69  69 100 S3        29.92R
$$

VAZ100-281100-
MARINE

STATION/POSITION TIME  TEMP    WIND        PRES    WAVE   SWELL
                       AIR SEA DIR/SP/G            HT/PER HT/PER
                 (UTC) (F)     (DEG/KT/KT) (MB)    (FT/S) (FT/S)
BRANDYWINE LGT   0948   67      60/ 17/ 19   N/A
CAPE MAY NJ      0948   63 72   40/  5/  8 1014.6R
LEWES DE         0948   69 72   50/ 14/ 15 1014.8R
OCEAN-CITY-INLET 0948   71 73   60/  6/ 12 1015.0R
WACHAPREAGUE VA  0942   69 73   20/  3/  5 1013.6R
THOMAS POINT MD  1000   65 74   60/ 11/ 12 1016.2R
GOOSES REEF MD   1000   69 74  100/ 12/ 14 1014.6    1/ 2
COVE POINT MD    0942   67     100/ 11/ 14 1014.4S
SOLOMONS ISLAND  0942   69 75   70/ 10/ 12   N/A
BISHOPS HEAD MD  0948   68 71   60/ 12/ 14 1013.9R
PINEY POINT MD   0948           90/ 10/ 11   N/A
POTOMAC MD       1000   71 75   90/ 14/ 16 1012.6    1/ 2
CAMBRIDGE MD     0948   67 74   70/  9/ 10 1013.5R
LEWISETTA VA     0942   72 74  100/ 12/ 14 1013.0R
RAPPAHANNOCK LGT 0948           90/  4/  5 1014.1R
STINGRAY PT      1000   74 75   CALM  /  2 1013.8    1
YORK RVR RNG VA  0942   73     190/  4/  5 1012.7F
YORKTOWN VA      0942   71 76  230/  2/  3 1012.9F
JAMESTOWN VA     1000   72 76  110/  4/  6   N/A     0
DOMINION TERM VA 0942   72     220/  3/  3 1013.3S
KIPTOPEKE VA     0948      75   40/  3/  3   N/A
CHES BAY BRIDGE  0942   73 76  160/  2/  2 1013.3R
CAPE HENRY VA    0942   71      CALM  /  1   N/A
WILLOUBY STN VA  0942   73      CALM  /  1   N/A
CAPE HENRY BUOY  0942      75                N/A     4/ 7   2/11
1ST LANDING BUOY 1000   73 75  200/  2/  4 1013.3    2/ 5
CAPE CHARLES BUO 0956      76                N/A     3/ 7   2/11
OFFSHORE WE BUOY 0951      75                N/A     4/ 7   2/11
64NM E OF VA BCH 0950   74 74   10/ 10/ 12 1012.7R   4/ 6   3/ 6
DUCK PIER NC     0942   73 76  340/  7/  8 1012.7R
44056 DUCK FRF   0941      76                N/A     4/ 7   2/12
OREGON INLET NC  0942   72 76  320/  4/  4 1012.8R
HATTERAS NC      0942   75 77  330/  7/  8 1012.6R
DIAMOND SHLS NC  0950   77 84  340/ 10/ 14 1012.3R   5/ 7   5/ 7
CAPE LOOKOUT NC  1000   73     360/  3/  4 1013.2R
$$




USA.gov is the U.S. government's official web portal to all federal, state and local government web resources and services.